This is the latest recevied weather packets stored in our database for station/object DO7ZT-13. If no packets are shown the sender has not sent any weather packets the latest 10 day(s).
| Time | Temp. | Humidity | Pressure | Rain* | Wind** | Luminosity | Snow |
|---|---|---|---|---|---|---|---|
| 1777968308 | 17.22° C | 66% | 1009 hPa | 0 mm | 0 m/s | - | - |
| 1777968020 | 17.22° C | 66% | 1009.1 hPa | 0 mm | 0.89 m/s, 303° | - | - |
| 1777967707 | 17.22° C | 66% | 1009.1 hPa | 0 mm | 0 m/s | - | - |
| 1777967420 | 17.22° C | 68% | 1009.1 hPa | 0 mm | 0 m/s | - | - |
| 1777967108 | 16.11° C | 71% | 1009.3 hPa | 0 mm | 0.45 m/s, 308° | - | - |
| 1777966832 | 16.11° C | 71% | 1009.3 hPa | 0 mm | 0 m/s | - | - |
| 1777966520 | 16.11° C | 71% | 1009.3 hPa | 0 mm | 0.45 m/s, 313° | - | - |
| 1777966208 | 16.11° C | 72% | 1009.5 hPa | 0 mm | 0.45 m/s, 294° | - | - |
| 1777965920 | 16.11° C | 71% | 1009.5 hPa | 0 mm | 0.89 m/s, 306° | - | - |
| 1777965608 | 16.11° C | 70% | 1009.5 hPa | 0 mm | 0.45 m/s, 264° | - | - |
| 1777965320 | 16.11° C | 73% | 1009.7 hPa | 0 mm | 0.45 m/s, 288° | - | - |
| 1777965007 | 15° C | 73% | 1009.7 hPa | 0 mm | 0.45 m/s, 258° | - | - |
| 1777964720 | 15° C | 73% | 1009.7 hPa | 0 mm | 0.89 m/s, 246° | - | - |
| 1777964408 | 15° C | 75% | 1009.6 hPa | 0 mm | 0.89 m/s, 246° | - | - |
| 1777964120 | 15° C | 77% | 1009.6 hPa | 0 mm | 0.45 m/s, 276° | - | - |
| 1777963808 | 15° C | 78% | 1009.6 hPa | 0 mm | 0.89 m/s, 256° | - | - |
| 1777963520 | 15° C | 78% | 1009.7 hPa | 0 mm | 0.45 m/s, 282° | - | - |
| 1777963208 | 15° C | 78% | 1009.7 hPa | 0 mm | 0 m/s | - | - |
| 1777962920 | 15° C | 79% | 1009.7 hPa | 0 mm | 0.45 m/s, 268° | - | - |
| 1777962608 | 13.89° C | 78% | 1009.5 hPa | 0 mm | 0.45 m/s, 258° | - | - |
| 1777962320 | 13.89° C | 81% | 1009.5 hPa | 0 mm | 0.89 m/s, 264° | - | - |
| 1777962007 | 13.89° C | 82% | 1009.5 hPa | 0 mm | 0.89 m/s, 276° | - | - |
| 1777961720 | 13.89° C | 84% | 1009.4 hPa | 0 mm | 0.45 m/s, 306° | - | - |
| 1777961407 | 13.89° C | 84% | 1009.4 hPa | 0 mm | 0.89 m/s, 306° | - | - |
| 1777961120 | 13.89° C | 83% | 1009.4 hPa | 0 mm | 0.89 m/s, 300° | - | - |
* Rain latest hour (hover to see other rain measurements)
** Current wind speed in m/s (hover to see current wind gust speed)